Tracking 33208 objects as of 14-Feb-2026
HD Live streaming from Space Station
objects crossing your sky now

NOAA 16 DEB

Track NOAA 16 DEB now!
10-day predictions


NORAD ID: 41264
Int'l Code: 2000-055FQ
Perigee: 806.7 km
Apogee: 812.6 km
Inclination: 98.6 °
Period: 100.9 minutes
Semi major axis: 7180 km
RCS: Unknown
Launch date: September 21, 2000
Source: United States (US)
Launch site: AIR FORCE WESTERN TEST RANGE (AFWTR)

Note: This is SATELLITE DEBRIS
Your satellite tracking list
Your tracking list is empty




NASA's NSSDC Master Catalog

Two Line Element Set (TLE):
1 41264U 00055FQ  26045.59950544  .00002966  00000-0  12420-2 0  9999
2 41264  98.6331 102.5387 0004147 129.5444 230.6104 14.26778533524340
Source of the keplerian elements: AFSPC